Location: Mococo
(38.0255°N, 122.1161°W)
Time: 05:05:20
(UTC+00:00)

Meteor 2-8 Rocket - Visible Passes

Search period start: 14 May 2026 00:00
Search period end: 24 May 2026 00:00
Orbit: 936 x 958 km, 82.5° (Epoch: 13 May)

Date Brightness Start Highest point End Pass type
(mag) Time Alt. Az. Time Alt. Az. Time Alt. Az.
14 May 6.4 12:13:38 10° NNE 12:19:07 33° ENE 12:24:37 10° SE visible
16 May 7.6 11:05:46 10° NE 11:07:11 11° ENE 11:08:37 10° E visible
17 May 7.2 11:20:21 10° NNE 11:24:24 18° ENE 11:28:26 10° ESE visible
18 May 6.6 11:36:17 10° NNE 11:41:29 28° ENE 11:46:41 10° SE visible
19 May 5.7 11:52:37 10° N 11:58:28 44° ENE 12:04:18 10° SSE visible
20 May 4.9 12:09:13 10° N 12:15:22 71° E 12:21:29 10° SSE visible
21 May 7.2 10:43:19 10° NE 10:46:42 15° ENE 10:50:04 10° ESE visible
22 May 6.7 10:58:59 10° NNE 11:03:50 24° ENE 11:08:40 10° SE visible
23 May 5.9 11:15:12 10° N 11:20:52 37° ENE 11:26:31 10° SE visible
